When you browse on this site, cookies collect data to enhance your experience and personalize the content and advertising you see.
Visit our Privacy Policy to learn more. By continuing to use the site, you agree to this use of cookies and data.
EN

Hourly Weather Korczowka

Today, 9 August, Sunday

Time Temperature Precipitation Wind Pressure Humidity
00:00 +23°C° 0 mm 2 mps 750 mmHg 75%
01:00 +22°C° 0 mm 1 mps 750 mmHg 78%
02:00 +22°C° 0 mm 1 mps 750 mmHg 81%
03:00 +21°C° 0 mm 1 mps 750 mmHg 83%
04:00 +21°C° 0 mm 1 mps 750 mmHg 85%
05:00 +21°C° 0 mm 1 mps 749 mmHg 86%
06:00 +22°C° 0 mm 1 mps 749 mmHg 83%
07:00 +23°C° 0 mm 1 mps 750 mmHg 79%
08:00 +24°C° 0 mm 1 mps 750 mmHg 75%
09:00 +25°C° 0.2 mm 1 mps 750 mmHg 71%
10:00 +26°C° 0.2 mm 1 mps 750 mmHg 67%
11:00 +28°C° 0.2 mm 1 mps 749 mmHg 62%
12:00 +28°C° 0.7 mm 2 mps 749 mmHg 59%
13:00 +29°C° 0.7 mm 2 mps 749 mmHg 56%
14:00 +30°C° 0.7 mm 2 mps 749 mmHg 52%
15:00 +29°C° 0.6 mm 2 mps 749 mmHg 55%
16:00 +28°C° 0.6 mm 2 mps 748 mmHg 58%
17:00 +28°C° 0.6 mm 3 mps 748 mmHg 61%
18:00 +26°C° 0.2 mm 2 mps 748 mmHg 67%
19:00 +25°C° 0.2 mm 2 mps 748 mmHg 74%
20:00 +23°C° 0.2 mm 1 mps 748 mmHg 80%
21:00 +23°C° 0.4 mm 1 mps 748 mmHg 82%
22:00 +22°C° 0.4 mm 1 mps 748 mmHg 85%
23:00 +21°C° 0.4 mm 1 mps 748 mmHg 87%

Tomorrow, 10 August, Monday

Time Temperature Precipitation Wind Pressure Humidity
00:00 +21°C° 0 mm 1 mps 748 mmHg 88%
01:00 +20°C° 0 mm 1 mps 748 mmHg 90%
02:00 +20°C° 0 mm 1 mps 748 mmHg 91%
03:00 +20°C° 0 mm 1 mps 748 mmHg 92%
04:00 +18°C° 0 mm 2 mps 748 mmHg 92%
05:00 +18°C° 0 mm 2 mps 748 mmHg 93%
06:00 +19°C° 0 mm 2 mps 748 mmHg 89%
07:00 +20°C° 0 mm 2 mps 748 mmHg 85%
08:00 +23°C° 0 mm 2 mps 748 mmHg 81%
09:00 +24°C° 0.1 mm 2 mps 748 mmHg 75%
10:00 +25°C° 0.1 mm 2 mps 749 mmHg 69%
11:00 +27°C° 0.1 mm 3 mps 749 mmHg 63%
12:00 +27°C° 0 mm 3 mps 749 mmHg 59%
13:00 +28°C° 0 mm 3 mps 748 mmHg 55%
14:00 +29°C° 0 mm 3 mps 748 mmHg 52%
15:00 +29°C° 0.1 mm 3 mps 748 mmHg 53%
16:00 +28°C° 0.1 mm 3 mps 748 mmHg 54%
17:00 +28°C° 0.1 mm 3 mps 748 mmHg 55%
18:00 +27°C° 0.2 mm 2 mps 748 mmHg 62%
19:00 +25°C° 0.2 mm 2 mps 748 mmHg 69%
20:00 +23°C° 0.2 mm 2 mps 748 mmHg 76%
21:00 +21°C° 0.1 mm 2 mps 748 mmHg 79%
22:00 +21°C° 0.1 mm 2 mps 748 mmHg 82%
23:00 +20°C° 0.1 mm 2 mps 748 mmHg 84%

Day after tomorrow, 11 August, Tuesday

Time Temperature Precipitation Wind Pressure Humidity
00:00 +20°C° 0 mm 2 mps 748 mmHg 86%
01:00 +19°C° 0 mm 2 mps 748 mmHg 88%
02:00 +19°C° 0 mm 2 mps 748 mmHg 90%
03:00 +18°C° 0 mm 2 mps 748 mmHg 92%
04:00 +18°C° 0 mm 2 mps 748 mmHg 93%
05:00 +18°C° 0 mm 2 mps 749 mmHg 94%
06:00 +19°C° 0 mm 3 mps 749 mmHg 91%
07:00 +20°C° 0 mm 3 mps 749 mmHg 87%
08:00 +21°C° 0 mm 3 mps 749 mmHg 84%
09:00 +22°C° 0 mm 4 mps 749 mmHg 77%
10:00 +23°C° 0 mm 4 mps 749 mmHg 70%
11:00 +26°C° 0 mm 4 mps 749 mmHg 64%
12:00 +26°C° 0 mm 5 mps 749 mmHg 61%
13:00 +27°C° 0 mm 5 mps 749 mmHg 57%
14:00 +27°C° 0 mm 5 mps 749 mmHg 54%
15:00 +27°C° 0 mm 5 mps 749 mmHg 55%
16:00 +27°C° 0 mm 5 mps 749 mmHg 56%
17:00 +26°C° 0 mm 5 mps 749 mmHg 57%
18:00 +25°C° 0.1 mm 4 mps 749 mmHg 63%
19:00 +22°C° 0.1 mm 4 mps 749 mmHg 70%
20:00 +20°C° 0.1 mm 3 mps 749 mmHg 77%
21:00 +19°C° 0 mm 3 mps 749 mmHg 77%
22:00 +18°C° 0 mm 3 mps 750 mmHg 77%
23:00 +17°C° 0 mm 3 mps 750 mmHg 77%

12 August, Wednesday

Time Temperature Precipitation Wind Pressure Humidity
00:00 +16°C° 0 mm 3 mps 750 mmHg 79%
01:00 +14°C° 0 mm 3 mps 750 mmHg 81%
02:00 +14°C° 0 mm 3 mps 750 mmHg 83%
03:00 +13°C° 0 mm 3 mps 750 mmHg 85%
04:00 +14°C° 0 mm 2 mps 750 mmHg 87%
05:00 +13°C° 0 mm 2 mps 750 mmHg 89%
06:00 +14°C° 0 mm 3 mps 751 mmHg 84%
07:00 +16°C° 0 mm 3 mps 751 mmHg 79%
08:00 +17°C° 0 mm 3 mps 751 mmHg 74%
09:00 +19°C° 0 mm 3 mps 751 mmHg 67%
10:00 +20°C° 0 mm 3 mps 751 mmHg 61%
11:00 +21°C° 0 mm 3 mps 751 mmHg 54%
12:00 +22°C° 0 mm 3 mps 751 mmHg 51%
13:00 +24°C° 0 mm 3 mps 751 mmHg 48%
14:00 +24°C° 0 mm 3 mps 751 mmHg 46%
15:00 +24°C° 0 mm 3 mps 751 mmHg 46%
16:00 +24°C° 0 mm 3 mps 751 mmHg 47%
17:00 +24°C° 0 mm 3 mps 750 mmHg 48%
18:00 +21°C° 0 mm 3 mps 750 mmHg 53%
19:00 +19°C° 0 mm 2 mps 750 mmHg 59%
20:00 +17°C° 0 mm 2 mps 750 mmHg 64%
21:00 +17°C° 0 mm 2 mps 750 mmHg 69%
22:00 +16°C° 0 mm 2 mps 751 mmHg 73%
23:00 +15°C° 0 mm 2 mps 751 mmHg 78%

13 August, Thursday

Time Temperature Precipitation Wind Pressure Humidity
00:00 +14°C° 0 mm 2 mps 751 mmHg 81%
01:00 +14°C° 0 mm 2 mps 750 mmHg 84%
02:00 +13°C° 0 mm 1 mps 750 mmHg 87%
03:00 +13°C° 0 mm 1 mps 750 mmHg 87%
04:00 +13°C° 0 mm 1 mps 750 mmHg 88%
05:00 +13°C° 0 mm 1 mps 750 mmHg 89%
06:00 +14°C° 0 mm 1 mps 750 mmHg 84%
07:00 +15°C° 0 mm 1 mps 750 mmHg 78%
08:00 +18°C° 0 mm 1 mps 750 mmHg 72%
09:00 +18°C° 0 mm 2 mps 750 mmHg 66%
10:00 +20°C° 0 mm 2 mps 750 mmHg 60%
11:00 +21°C° 0 mm 2 mps 750 mmHg 54%
12:00 +23°C° 0 mm 2 mps 749 mmHg 51%
13:00 +23°C° 0 mm 1 mps 749 mmHg 49%
14:00 +24°C° 0 mm 1 mps 749 mmHg 46%
15:00 +24°C° 0 mm 1 mps 749 mmHg 45%
16:00 +24°C° 0 mm 1 mps 748 mmHg 45%
17:00 +24°C° 0 mm 1 mps 748 mmHg 45%
18:00 +23°C° 0 mm 1 mps 748 mmHg 50%
19:00 +21°C° 0 mm 1 mps 748 mmHg 56%
20:00 +19°C° 0 mm 1 mps 748 mmHg 61%
21:00 +19°C° 0 mm 1 mps 748 mmHg 63%
22:00 +18°C° 0 mm 1 mps 748 mmHg 66%
23:00 +16°C° 0 mm 2 mps 748 mmHg 69%

14 August, Friday

Time Temperature Precipitation Wind Pressure Humidity
00:00 +16°C° 0 mm 2 mps 747 mmHg 72%
01:00 +15°C° 0 mm 2 mps 747 mmHg 76%
02:00 +14°C° 0 mm 2 mps 747 mmHg 79%
03:00 +14°C° 0 mm 1 mps 747 mmHg 82%
04:00 +14°C° 0 mm 1 mps 747 mmHg 84%
05:00 +13°C° 0 mm 1 mps 747 mmHg 87%
06:00 +15°C° 0 mm 1 mps 747 mmHg 81%
07:00 +18°C° 0 mm 1 mps 747 mmHg 75%
08:00 +19°C° 0 mm 1 mps 747 mmHg 69%
09:00 +21°C° 0 mm 1 mps 747 mmHg 64%
10:00 +22°C° 0 mm 1 mps 747 mmHg 59%
11:00 +24°C° 0 mm 2 mps 747 mmHg 53%
12:00 +24°C° 0 mm 2 mps 747 mmHg 50%
13:00 +25°C° 0 mm 1 mps 746 mmHg 47%
14:00 +26°C° 0 mm 1 mps 746 mmHg 44%
15:00 +26°C° 0 mm 1 mps 746 mmHg 44%
16:00 +26°C° 0 mm 1 mps 746 mmHg 44%
17:00 +26°C° 0 mm 1 mps 746 mmHg 44%
18:00 +24°C° 0 mm 1 mps 746 mmHg 49%
19:00 +22°C° 0 mm 1 mps 746 mmHg 55%
20:00 +21°C° 0 mm 1 mps 746 mmHg 61%
21:00 +20°C° 0 mm 1 mps 746 mmHg 63%
22:00 +19°C° 0 mm 1 mps 746 mmHg 65%
23:00 +18°C° 0 mm 1 mps 746 mmHg 67%
Show more